Welcome to the New NWS' Forecast!
Most changes are behind the scenes, but click here for differences you might notice.
Latest weather observations around

Huntsville, Huntsville International / Jones Field (KHSV)

Using English Units (Switch to International System of Units)
Date/ Time (CDT) Wind (mph) Vis. (mi) Weather Sky Cond. Temp (°F) Rel. Humidity Wind Chill (°F) Heat Index (°F) Pressure Precip. (in)
Air Dwpt 6 hour Altimeter (inHg) Sea level (inHg) 1 hr 3 hr 6 hr
Max Min
Aug 14 02:53 Calm 10 Clear CLR 68 66     93%     30.02 30      
Aug 14 01:53 Calm 10 Clear CLR 68 66     93%     30.03 30.01      
Aug 14 00:53 Calm 10 Clear CLR 69 67     93%     30.04 30.01      
Aug 13 23:53 E 3 10 Mostly Clear FEW070 73 68     84%   74 30.05 30.02      
Aug 13 22:53 S 5 10 Mostly Clear FEW070 70 67     90%     30.05 30.02      
Aug 13 20:53 NNW 3 10 Mostly Clear FEW250 77 67     71%   78 30.02 30      
Aug 13 19:53 Calm 10 Mostly Clear FEW250 81 64     56%   83 30.01 29.98      
Aug 13 18:53 NNW 3 10 Clear CLR 85 64     50%   86 30 29.97      
Aug 13 17:53 NW 6 10 Mostly Clear FEW050 89 63     42%   90 30 29.98      
Aug 13 16:53 NW 8 10 Mostly Clear FEW050 91 62     38%   92 30.01 29.98      
Aug 13 15:53 NE 7 10 Mostly Clear FEW050 92 62     37%   93 30.02 29.99      
Aug 13 14:53 Calm 10 Mostly Clear FEW050 92 60     35%   92 30.04 30.01      
Aug 13 13:53 5 10 Mostly Clear FEW050 92 57     31%   91 30.06 30.03      
Aug 13 12:53 NNW 5 10 Mostly Clear FEW050 90 62     40%   90 30.07 30.05      
Aug 13 11:53 5 10 Mostly Clear FEW045 88 65     47%   90 30.09 30.06      
Aug 13 10:53 3 10 Mostly Clear FEW040 87 66     50%   89 30.09 30.06      
Aug 13 09:53 Calm 10 Mostly Clear FEW028 83 71     67%   88 30.09 30.07      
Aug 13 08:53 Calm 9 Mostly Clear FEW250 78 72     82%   79 30.1 30.07      
Aug 13 07:53 Calm 8 Mostly Clear FEW250 74 71     91%   75 30.09 30.06      
Aug 13 06:53 N 3 7 Mostly Clear FEW250 69 68     96%     30.08 30.05      
Aug 13 05:53 NNW 3 7 Patchy Fog FEW250 68 67     96%     30.07 30.05      
Aug 13 00:53 Calm 6 Fog/Mist CLR 72 69     91%   73 30.07 30.04      
Aug 12 22:53 NW 3 7 Clear CLR 77 68     74%   78 30.07 30.04      
Aug 12 21:53 N 7 7 Clear CLR 80 68     67%   83 30.06 30.03      
Aug 12 17:53 N 5 10 Partly Cloudy SCT075 92 67     44%   95 30 29.98      
Aug 12 16:53 N 5 10 Partly Cloudy FEW065 SCT085 93 66     41%   96 30.01 29.98      
Aug 12 13:53 NW 8 10 Mostly Clear FEW060 93 65     40%   95 30.05 30.02      
Aug 12 06:53 Calm 9 Mostly Cloudy BKN220 73 73     100%   75 30.04 30.02      
Aug 12 03:53 Calm 9 Clear CLR 74 72     94%   75 30.02 29.99      
Aug 12 02:53 S 3 8 Clear CLR 73 72     96%   75 30.02 29.99      
Aug 12 00:53 E 3 9 Clear CLR 76 73     91%   77 30.02 29.99      
Aug 11 22:53 SSE 3 10 Clear CLR 77 73     88%   79 30.02 29.99      
Aug 11 15:53 Calm 10 Mostly Clear FEW055 91 67     45%   94 29.97 29.94      
Aug 11 12:53 NW 7 10 Mostly Clear FEW046 90 66     45%   93 30.02 30      
Aug 11 08:53 WNW 3 10 Mostly Clear FEW014 FEW250 80 72     76%   84 30.03 30.01      
Aug 11 00:53 SSW 5 10 Clear CLR 73 71     94%   74 29.97 29.94      
May 15 04:53 Calm 10 Mostly Cloudy BKN065 70 68     93%     29.98 29.96      
May 14 10:53 N 8 10 Mostly Clear FEW050 88 64     45%   89 30.07 30.04      
May 11 20:53 S 8 10 Clear CLR 75 60     60%   75 30.05 30.03      
May 11 16:53 SW 11 10 Mostly Clear FEW090 89 57     34%   88 30.04 30.01      
Jun 12 04:53 SE 7 10 Partly Cloudy SCT025 72 70     93%   73 30.13 30.1      
Jun 11 22:53 ESE 3 10 Clear CLR 78 70     76%   79 30.12 30.09      
Jun 10 17:53 S 10 10 Partly Cloudy FEW060 SCT 85 61     45%   85 30.03 30.01      
Jun 09 19:53 W 3 10 Mostly Clear FEW080 77 60     56%   77   29.92      
Jun 08 19:53 NNW 6 10 Partly Cloudy SCT250 73 56     55%   73 29.89 29.87      
Jun 07 10:53 NE 17 10 Mostly Clear FEW050 FEW250 78 53     42%   78 29.89 29.87